Location: Mauries
(43.6188°N, 0.3322°W)
Time: 13:04:12
(UTC+00:00)

Envisat - Pass Details

Date: 13 March 2026
Orbit: 761 x 762 km, 98.4° (Epoch: 14 April)

Event Time Altitude Azimuth Distance (km) Brightness Sun altitude
Rises 04:00:43 0° 360° (N) 3,235 6.5 -25.1°
Reaches altitude 10° 04:03:32 10° 344° (NNW) 2,304 5.5 -24.6°
Enters shadow 04:05:13 16° 327° (NNW) 1,892 4.9 -24.3°
